User: anonymous   Login
Location: Fishcreek Rd Observing Site
(41.1865°N, 81.4271°W)
Time: 22:30:20
(UTC-04:00)
Language:

Iridium 45 - Orbit

View from above orbital plane
View from above orbital plane
View from above satellite
View from above satellite

Ground track
Ground track

The orbit data is extracted from the following two-line orbital elements,

1 25104U 97082A   15245.40076189  .00000178  00000-0  56533-4 0  9992
2 25104  86.3989 200.5084 0000745  52.3975 307.7288 14.34219719926668
Epoch (UTC): 02 September 2015 09:37:05
Eccentricity: 0.0000745
inclination: 86.3989°
perigee height: 777 km
apogee height: 778 km
right ascension of ascending node: 200.5084°
argument of perigee: 52.3975°
revolutions per day: 14.34219719
mean anomaly at epoch: 307.7288°
orbit number at epoch: 92666

The dashed part of the orbit path shows where the satellite is in the earth's shadow,  

DLR